Regional Weather Roundup
Issued by NWS

Home | Current Version | Previous Version | Graphics & Text | Print | Product List | Glossary On
Versions: 1 2 3 4 5 6 7 8 9 10 11 12 13 14 15 16 17 18 19 20 21 22 23 24 25 26 27 28 29 30 31 32 33 34 35 36 37 38 39 40 41 42 43 44 45 46 47 48 49 50
000
ASUS43 KBIS 300110
RWRND

NORTH DAKOTA REGIONAL WEATHER ROUNDUP
NATIONAL WEATHER SERVICE BISMARCK ND
800 PM CDT MON MAY 29 2017

NOTE: "FAIR" INDICATES FEW OR NO CLOUDS BELOW 12,000 FEET WITH NO
SIGNIFICANT WEATHER AND/OR OBSTRUCTIONS TO VISIBILITY.


NDZ001>003-009>011-017-300200-
NORTHWEST NORTH DAKOTA

CITY           SKY/WX    TMP DP  RH WIND       PRES   REMARKS
WILLISTON      FAIR      67  25  20 NW21G26   30.05S
MINOT          FAIR      59  39  47 N14       29.98R
MINOT AFB      SUNNY     59  39  46 N12       29.97R
$$

NDZ018>021-031>035-040>046-300200-
SOUTHWEST NORTH DAKOTA

CITY           SKY/WX    TMP DP  RH WIND       PRES   REMARKS
BISMARCK       PTSUNNY   63  36  36 NW15      29.99F
DICKINSON      FAIR      62  28  27 N16       30.03F
GARRISON         N/A     62  34  35 N21       29.98F
HETTINGER ARPT SUNNY     62  30  29 NW22G31   30.06F
$$

NDZ004>008-012>016-024-026-027-054-300200-
NORTHEAST NORTH DAKOTA

CITY           SKY/WX    TMP DP  RH WIND       PRES   REMARKS
GRAND FORKS    CLOUDY    52  45  77 N16G23    29.89R
GRND FRKS AFB  CLOUDY    51  43  74 N16       29.89S
DEVILS LAKE    CLOUDY    53  43  68 NW18      29.93F
$$

NDZ022-023-025-028>030-036>039-047>053-300200-
SOUTHEAST NORTH DAKOTA

CITY           SKY/WX    TMP DP  RH WIND       PRES   REMARKS
FARGO          LGT RAIN  54  48  80 N14       29.90R
JAMESTOWN      PTSUNNY   57  42  57 N17       29.93S
$$





USA.gov is the U.S. government's official web portal to all federal, state and local government web resources and services.